Wind_Gust
11 13 13 16 17 19 17 17 13 24 24 28 27 25 17 17 23 23 20 24 19 19 22 20 20 26 29 23 25 24 23 19 16 17 14 22 11 14 14 14 14 13 14 11 10 11 13 14 14 15 14 14 14 14 14 15 15 15 15 16 16 16 17 17 16 16 16 16 16 16 16 16 16 16 15 15 15 15 16 16 16 16 15 14 15 15 15 15 15 15 15 16 16 16 16 16 16
15 15 14 15 20 17 18 16 20 17 24 24 26 27 20 20 17 22 20 21 16 27 23 27 31 34 31 30 28 25 27 22 20 24 20 19 16 14 13 14 15 13 11 10 8 9 13 14 15 15 15 15 15 14 15 15 15 15 15 16 16 17 17 16 16 16 16 16 16 17 17 16 16 16 16 16 16 16 16 16 15 15 15 15 15 15 16 16 16 16 16 16 17 17 17 16 16
16 17 18 18 18 20 18 19 22 19 23 26 17 21 20 17 25 27 19 23 25 25 25 21 22 19 23 22 24 20 17 17 22 20 21 19 19 13 11 13 15 14 12 10 10 10 12 14 15 15 15 15 15 15 15 15 15 15 15 16 16 17 16 16 16 16 16 17 17 17 17 17 17 17 17 17 17 16 16 15 16 15 15 15 15 16 16 16 16 17 17 17 18 17 17 16 18
18 17 18 18 17 17 16 17 22 24 24 23 16 16 26 18 25 27 25 25 24 20 21 23 22 24 26 28 26 25 20 19 16 19 25 17 15 16 14 14 14 12 11 9 10 11 12 14 14 15 15 16 16 16 15 15 15 15 15 16 16 16 16 16 16 16 17 17 16 16 17 17 18 18 18 18 17 17 16 16 16 16 16 16 15 16 17 17 17 17 18 18 18 17 17 19 19
16 17 20 21 18 21 17 21 22 23 28 16 14 16 25 23 21 24 25 21 15 17 23 23 26 20 24 23 17 19 20 18 16 13 20 17 15 15 15 15 13 15 13 12 12 13 15 15 14 14 16 17 17 16 16 15 15 15 16 16 16 16 16 16 16 17 17 17 17 17 18 18 18 18 18 17 17 17 16 16 16 16 16 16 15 16 16 17 17 17 18 18 18 18 17 20 18
18 18 19 23 26 14 27 23 22 23 27 23 9 17 22 23 20 18 18 19 18 19 20 18 23 16 20 17 21 16 14 15 15 16 20 15 15 14 15 15 14 14 13 14 12 13 15 15 14 15 15 17 17 17 16 16 16 16 16 16 16 16 16 16 16 16 17 17 17 17 18 18 18 18 18 18 17 17 17 16 16 16 16 16 15 15 16 16 16 17 18 18 18 18 17 19 19
21 18 21 18 26 21 20 21 25 26 15 13 17 21 23 23 22 24 21 26 26 25 23 27 30 26 26 24 26 20 14 13 13 17 14 17 15 16 16 16 16 15 14 14 14 16 16 15 15 15 16 16 17 17 16 16 16 16 16 16 16 16 16 16 16 16 16 17 17 17 17 18 18 18 17 17 16 16 16 17 16 16 16 15 15 14 14 14 15 17 18 18 18 17 17 18 19
20 20 21 22 21 23 22 24 26 25 18 14 23 23 25 25 19 23 15 19 12 16 17 21 22 29 15 12 18 15 17 19 18 18 18 17 16 17 15 16 16 13 14 13 13 13 17 16 15 15 16 16 17 17 17 17 17 16 16 16 16 16 16 16 16 16 16 17 17 17 17 17 17 17 16 16 16 16 16 16 16 16 15 15 14 14 14 13 14 16 16 17 17 17 16 17 17
23 23 18 23 24 25 24 25 27 22 15 19 26 23 19 20 17 21 21 19 20 18 18 19 20 23 18 21 20 17 19 15 17 16 16 15 14 13 13 12 15 15 13 14 14 12 13 16 16 16 16 16 17 16 16 17 16 16 16 16 16 16 16 16 16 16 16 16 17 17 17 17 16 16 16 16 16 16 16 16 16 16 16 15 14 14 13 12 12 14 15 15 16 16 16 17 18
23 24 23 29 22 24 23 24 27 18 16 21 21 21 20 16 18 24 23 22 19 21 20 21 22 25 19 23 22 13 16 15 17 15 14 16 15 11 13 14 14 16 13 15 12 13 13 17 17 16 15 16 16 16 16 16 16 16 15 15 15 15 15 15 15 15 15 16 15 16 16 16 16 16 15 15 15 15 16 16 16 16 15 15 14 13 13 11 11 12 13 14 15 15 16 16 18
27 27 22 26 24 24 25 22 20 13 26 22 18 20 17 20 22 23 21 19 16 20 18 27 28 23 20 19 19 13 14 15 18 16 15 15 16 15 14 14 14 15 14 13 13 13 13 13 19 17 17 16 15 16 15 15 15 15 15 15 15 15 15 15 15 15 15 15 15 15 15 15 15 15 15 15 15 15 15 15 15 15 14 14 14 13 12 11 11 11 12 13 15 15 15 16 16
25 27 25 25 26 23 23 22 16 16 20 16 19 18 13 20 21 25 21 20 17 20 17 17 22 26 20 18 15 16 14 13 16 15 13 13 16 14 14 13 13 14 15 15 13 12 12 11 12 17 17 17 16 16 15 15 15 14 15 15 15 15 15 14 14 14 14 14 14 14 15 14 15 14 15 15 15 15 15 15 14 14 13 13 12 12 11 11 10 10 11 12 12 14 15 15 15
29 23 25 25 25 25 20 16 14 18 19 17 18 17 18 18 18 20 18 20 14 15 15 24 28 14 16 16 18 16 16 13 16 16 13 14 15 15 13 14 14 14 14 16 14 11 10 11 11 13 15 19 17 16 14 14 15 14 15 15 15 15 14 13 13 13 13 13 13 13 14 14 14 14 14 15 14 14 14 14 13 13 13 12 11 11 11 11 10 9 10 10 11 13 15 15 14
32 26 25 27 22 25 22 15 15 18 15 20 20 14 15 16 17 20 24 20 13 15 15 27 21 23 22 21 18 17 16 14 16 16 15 13 15 15 14 14 14 15 15 15 15 9 8 9 11 12 12 12 12 13 14 14 14 14 14 15 14 14 14 13 12 12 12 13 13 13 13 12 13 14 14 15 14 13 12 12 12 12 11 11 10 9 9 10 10 9 9 10 12 14 14 15 16
29 27 28 26 26 22 20 23 17 22 19 28 26 17 12 17 22 24 27 26 15 15 26 21 24 20 20 20 19 18 19 16 15 15 15 15 13 14 15 14 14 14 15 12 15 13 9 9 12 10 8 9 10 10 10 13 15 15 14 14 14 13 13 13 12 11 11 12 12 11 11 11 12 15 14 15 13 12 12 11 11 10 10 9 9 9 9 9 9 9 8 8 11 13 13 14 14
29 27 27 22 26 24 23 17 12 19 20 23 21 24 23 20 20 18 17 19 20 17 16 15 19 12 21 17 24 22 20 18 16 16 18 16 14 13 14 14 16 15 16 12 11 10 9 8 8 11 9 8 7 9 10 9 12 14 14 14 13 13 12 12 12 11 10 10 10 11 11 10 8 10 12 12 13 10 10 9 9 8 8 8 8 7 7 8 9 9 8 9 11 13 13 13 15
25 27 25 25 27 26 15 19 23 23 26 26 15 16 21 17 15 19 14 18 27 15 21 18 17 15 25 24 24 24 21 18 17 17 16 15 16 16 16 16 16 12 15 11 9 7 7 9 10 8 7 7 10 9 8 11 13 13 11 13 14 13 12 12 13 13 10 8 8 9 9 6 10 8 8 5 10 5 7 7 6 6 6 7 7 7 5 6 7 7 8 9 11 12 11 12 17
25 29 25 26 22 16 12 18 28 29 30 25 15 18 26 18 13 17 22 21 21 19 21 19 22 20 20 22 24 22 20 20 19 20 17 16 15 17 15 15 14 17 13 12 9 7 9 9 10 8 8 9 9 10 9 11 10 11 10 9 7 10 10 10 9 9 12 8 8 7 7 5 6 9 5 7 3 5 5 8 7 6 5 5 6 7 7 6 5 6 7 9 11 11 11 9 13
28 25 26 24 19 17 15 26 26 26 26 21 22 16 19 17 18 16 22 15 19 23 17 19 22 20 20 21 21 21 21 20 19 18 18 17 16 16 15 12 13 16 14 13 10 8 8 8 10 8 8 9 9 10 10 11 13 10 12 11 9 12 13 13 6 8 11 7 10 8 8 7 8 9 6 7 7 8 6 10 9 8 7 8 7 7 8 10 6 7 9 10 11 13 10 9 11
27 24 24 25 14 15 22 24 23 24 24 26 22 19 20 14 15 13 15 18 18 25 24 19 26 24 23 21 20 20 19 18 17 17 17 16 14 15 15 15 14 15 12 12 14 9 9 10 9 9 8 9 10 12 12 13 10 9 9 7 8 9 7 11 9 10 10 12 9 8 10 8 7 10 12 15 13 8 8 11 13 12 13 12 11 9 7 10 11 9 9 11 8 8 7 9 12
22 28 22 17 23 22 17 23 31 26 25 27 21 13 18 11 11 14 20 19 14 17 19 26 27 26 24 22 20 20 20 18 16 15 15 14 12 13 15 15 14 15 15 13 15 12 8 8 7 8 8 9 9 9 7 10 9 9 10 9 11 10 13 11 11 11 10 12 10 14 14 10 10 11 8 9 9 8 8 8 8 9 8 7 11 9 8 10 10 8 11 12 10 11 8 10 16
24 26 22 16 21 19 15 25 28 23 23 24 18 19 19 13 16 20 18 16 15 19 15 22 26 26 28 25 21 18 18 17 16 15 15 14 15 13 13 14 13 13 15 13 14 16 10 8 7 7 6 8 9 10 10 9 10 10 9 11 15 10 12 11 11 11 12 13 11 12 11 11 10 11 10 9 9 9 10 11 8 8 6 7 9 10 9 9 4 10 9 19 17 9 11 10 15
26 21 23 20 23 19 21 22 22 25 27 25 19 15 17 13 13 10 13 15 13 12 21 23 23 23 21 20 20 19 17 16 15 14 14 14 14 13 15 14 15 13 13 15 11 10 9 8 7 6 7 6 5 6 9 10 9 10 12 10 12 10 10 11 11 11 13 11 11 10 12 12 12 12 12 9 9 9 9 9 9 9 10 10 9 10 10 10 10 11 12 14 18 13 11 10 16
30 17 17 24 21 23 17 28 18 15 23 20 20 17 18 17 15 14 17 13 14 19 21 21 21 19 19 21 16 18 17 16 16 12 13 16 16 15 15 16 12 12 15 14 14 11 8 10 7 6 5 8 8 6 10 11 11 12 11 11 11 12 12 10 10 11 11 12 9 11 9 13 11 11 11 9 7 8 10 9 9 11 10 12 10 9 12 12 13 11 9 8 14 8 9 10 16
27 19 16 22 23 25 18 19 20 19 19 22 19 19 15 16 17 14 14 12 15 17 18 20 19 18 17 17 16 15 16 14 16 16 11 14 13 13 12 13 12 14 16 13 14 13 9 9 9 6 7 7 11 12 11 11 11 12 11 10 10 11 11 12 11 11 12 12 12 11 10 10 11 11 10 8 9 9 9 10 11 10 10 12 12 11 10 11 11 11 13 13 8 11 12 17 18
15 14 14 18 18 17 19 22 21 20 19 21 25 17 15 19 21 17 13 11 15 17 16 17 18 18 17 15 15 15 15 15 15 16 15 13 13 14 12 14 14 15 14 14 12 11 10 9 11 7 8 9 10 11 9 11 11 12 10 10 11 12 11 11 9 12 11 10 10 9 10 9 9 8 9 8 10 8 9 8 10 10 10 9 11 12 11 10 10 10 11 12 14 12 13 10 15
14 12 13 20 22 18 22 18 15 14 16 20 24 17 15 12 14 15 10 12 15 17 17 16 16 17 15 15 15 14 17 16 16 15 15 14 13 15 13 14 14 14 13 16 11 10 8 9 12 10 9 9 9 10 9 9 8 9 10 10 11 12 11 12 11 11 10 10 9 8 8 8 7 7 8 8 9 8 9 8 9 9 10 10 9 10 11 10 10 10 9 10 11 15 14 11 11
14 19 23 29 23 23 26 24 14 17 16 15 23 16 13 14 14 18 17 15 17 19 17 16 15 17 18 16 16 13 15 15 15 15 16 15 16 16 14 16 14 14 14 18 12 10 11 8 9 13 9 9 10 8 9 9 9 9 9 11 10 9 9 11 10 9 9 8 8 8 6 7 7 7 6 9 5 7 7 8 8 9 9 10 9 9 13 12 8 9 8 9 11 15 13 12 14
17 21 21 27 28 22 23 25 20 12 13 11 17 15 14 14 12 16 18 16 16 17 17 16 15 16 17 17 17 17 17 17 15 15 14 14 16 14 15 14 16 15 15 19 20 15 12 13 11 8 10 10 9 9 11 8 8 10 10 10 9 9 10 11 10 9 10 8 9 9 8 6 6 8 8 7 6 8 7 8 9 8 8 9 8 9 11 9 12 11 10 9 13 14 14 11 14
19 17 19 24 21 17 27 17 12 12 16 13 18 15 17 17 14 16 16 18 15 16 18 18 16 17 18 17 16 17 17 17 16 15 16 16 14 16 16 14 14 16 18 16 16 13 10 9 10 8 10 11 10 9 9 9 9 8 8 10 10 10 10 11 10 10 10 9 9 7 8 7 6 7 7 7 7 8 8 8 7 8 8 7 8 8 10 9 12 13 11 12 12 14 13 9 14
18 14 16 18 21 18 22 21 15 14 16 15 17 15 13 15 17 16 14 18 20 18 17 18 17 16 18 16 17 18 16 16 16 16 15 16 15 16 17 16 15 16 16 16 16 12 10 10 9 11 8 7 9 9 9 10 9 9 9 8 7 8 10 11 9 9 9 9 9 10 9 8 7 6 6 7 7 7 9 7 7 6 7 7 9 10 8 10 11 10 10 14 11 13 12 13 13
13 15 12 16 20 13 17 18 19 19 19 16 14 16 10 17 18 16 15 15 15 18 18 18 18 17 16 16 18 17 17 16 15 16 15 15 16 16 17 15 15 17 16 14 12 12 13 10 11 11 10 9 9 8 6 7 9 7 8 8 9 8 10 11 11 9 9 7 8 10 8 7 7 7 7 7 7 7 9 7 4 6 7 7 8 9 8 11 9 10 12 10 14 12 14 13 12
15 13 11 16 19 17 16 16 20 18 18 15 18 10 17 16 17 15 14 15 15 17 18 16 15 18 17 19 17 16 17 17 17 17 16 17 15 17 16 15 17 16 14 14 13 13 12 11 11 9 9 8 7 8 8 8 10 8 7 7 9 10 13 12 10 10 10 11 10 9 7 7 6 7 7 7 6 8 7 7 8 6 7 7 7 8 9 8 7 10 10 11 11 11 13 10 11
14 11 20 14 19 12 17 21 21 19 17 18 20 13 9 16 18 16 12 14 15 16 19 19 19 18 19 18 18 20 19 19 20 20 19 17 17 16 17 15 17 16 14 14 13 15 13 11 10 9 7 6 7 8 8 8 9 10 9 6 9 10 9 9 10 10 10 11 12 11 8 7 6 6 7 6 7 7 6 6 6 8 8 10 8 9 8 7 7 8 11 11 11 13 10 11 9
19 22 25 18 17 23 20 22 21 21 20 17 17 16 14 19 16 14 15 15 15 16 19 20 19 18 19 19 19 20 22 21 21 19 22 20 19 19 20 17 16 14 14 14 14 13 12 10 10 8 9 8 7 8 6 8 9 7 6 8 11 10 8 9 10 9 8 10 10 9 8 7 6 5 6 6 8 7 9 8 7 6 8 8 9 8 9 8 8 9 10 10 12 14 13 11 11
25 27 23 12 14 22 23 20 24 21 21 17 17 18 18 20 18 15 15 17 18 16 15 17 18 18 18 18 19 20 20 21 20 21 22 24 22 17 17 18 15 14 14 14 15 14 13 11 10 11 10 7 7 8 8 11 10 8 9 9 11 8 9 10 10 11 10 8 7 9 6 7 7 7 6 5 6 6 7 8 9 8 7 8 9 9 8 9 7 7 8 10 10 10 9 8 9
18 16 17 13 10 14 16 16 22 28 19 17 17 18 18 18 20 20 19 16 17 18 19 18 19 18 18 19 19 18 19 19 22 22 22 22 24 23 17 17 17 14 14 15 15 13 14 15 13 11 10 6 10 9 8 11 8 7 7 7 8 7 9 7 10 7 9 10 9 8 6 8 8 8 8 9 9 8 7 6 8 7 7 7 7 6 4 6 6 5 6 6 10 10 9 9 9
18 18 13 14 9 16 17 16 20 22 17 17 18 17 18 19 18 20 17 19 21 21 19 17 18 17 17 17 19 20 18 17 22 22 22 21 23 23 19 16 16 17 16 16 15 16 13 14 14 12 11 7 9 11 11 10 10 9 7 8 8 9 10 11 8 6 8 10 10 8 9 6 8 8 9 9 7 7 7 8 7 5 6 6 5 5 6 8 9 10 7 9 7 10 9 9 10
16 16 17 20 20 25 12 15 30 22 19 15 18 18 16 14 16 18 21 22 21 19 17 19 19 18 17 17 20 19 19 18 19 20 23 23 24 24 20 14 18 17 16 16 16 15 14 13 13 12 11 9 9 8 9 8 8 9 7 9 9 8 6 9 10 8 8 9 8 9 10 10 7 6 7 7 8 6 6 7 6 8 6 5 7 8 8 9 9 9 8 10 7 6 8 8 8
11 21 29 25 15 19 17 33 37 22 22 15 18 15 16 15 16 18 19 21 19 14 15 17 18 21 20 19 21 22 23 22 22 22 22 23 22 21 19 17 17 16 16 16 15 16 14 14 13 12 12 10 8 10 8 10 10 8 6 9 6 11 10 8 8 9 9 9 9 9 8 9 9 9 9 10 9 7 6 7 7 8 8 5 6 7 7 7 8 8 8 9 12 5 7 7 7
24 27 22 17 19 22 14 30 38 26 22 19 19 15 18 13 18 21 18 17 14 18 17 18 18 16 20 18 20 24 24 23 23 21 21 22 23 22 19 17 18 18 18 17 16 16 17 17 15 13 12 10 9 10 10 13 10 7 8 10 9 9 9 8 9 7 7 7 8 8 9 9 8 9 8 7 9 6 6 6 7 6 7 8 8 9 9 7 7 6 6 8 7 10 7 4 5
25 32 27 20 20 18 18 26 29 19 15 17 20 17 18 19 18 16 18 20 20 19 20 20 20 19 19 20 21 21 23 23 26 25 24 24 22 20 19 19 19 22 18 16 17 16 16 16 14 13 12 9 11 10 10 13 9 12 11 12 9 8 8 9 9 10 7 8 9 7 7 9 8 7 8 6 7 5 6 6 7 8 7 10 10 9 8 11 10 10 9 7 8 5 9 5 5
17 17 26 23 22 19 22 16 17 17 17 14 17 16 18 10 19 17 17 19 18 18 20 21 23 23 21 20 21 22 24 23 22 22 24 24 22 21 19 18 18 18 16 17 19 16 19 17 15 14 12 10 10 11 9 10 10 11 12 12 10 11 11 7 6 7 11 9 10 9 8 6 8 8 6 6 5 6 6 6 6 8 8 8 9 11 11 8 9 9 9 10 9 9 9 5 4
19 14 17 19 23 23 24 21 19 15 13 12 17 17 13 17 19 16 17 19 20 20 21 22 23 23 23 22 21 20 23 24 24 24 23 22 23 24 22 20 17 19 16 20 17 17 17 17 15 14 12 11 8 11 11 12 13 11 10 9 9 9 9 9 7 10 9 9 9 8 7 7 7 8 6 4 6 6 7 6 6 6 7 7 9 9 9 8 8 7 8 8 9 9 8 11 6
21 19 24 18 24 23 23 22 22 15 14 14 18 11 13 16 14 16 17 21 22 23 23 23 24 23 23 23 25 22 23 24 24 25 25 22 23 22 20 21 17 18 18 19 19 19 17 18 16 14 12 12 13 10 12 12 13 12 12 11 8 7 8 7 9 10 9 9 9 8 7 7 6 6 7 7 4 4 6 9 9 9 8 7 8 9 7 8 7 7 8 10 9 8 8 5 8
20 22 21 25 26 27 17 22 15 12 12 13 16 20 22 18 11 10 16 18 22 25 25 23 23 25 25 26 23 26 25 24 24 25 26 25 22 21 19 20 19 20 18 17 18 18 17 16 16 15 14 13 14 12 13 13 12 11 11 8 9 7 9 7 9 10 11 10 9 7 6 8 8 8 6 6 7 7 7 8 10 9 8 9 8 7 7 7 6 6 6 7 7 8 6 7 9
31 23 20 23 22 17 24 22 16 10 11 20 15 16 19 13 16 19 22 30 27 21 21 22 23 23 25 24 24 24 25 25 26 26 25 23 22 22 22 20 19 18 16 19 19 20 17 16 17 15 14 14 14 15 13 14 13 12 12 10 9 9 12 10 8 8 10 8 10 8 8 7 6 8 9 5 7 7 6 7 8 7 6 7 8 8 7 7 6 7 6 6 7 8 7 8 7
26 19 17 15 17 13 15 10 10 10 12 15 14 19 17 15 13 21 22 15 23 22 22 24 25 25 25 23 26 26 25 25 26 27 27 25 22 22 22 18 19 18 17 21 19 19 19 17 18 17 14 15 15 13 14 15 14 14 10 9 10 11 10 11 12 12 11 10 9 11 9 10 9 8 8 9 7 6 8 7 6 6 6 8 8 7 8 8 7 7 6 6 6 6 6 8 6
15 17 16 17 12 16 12 12 6 10 15 10 17 27 13 18 23 13 24 24 25 24 22 25 24 25 25 25 25 26 27 25 28 28 28 28 27 24 23 22 19 20 20 21 20 19 19 18 19 18 16 14 17 13 14 15 13 12 11 9 9 11 12 10 12 12 11 11 11 10 10 10 9 8 8 9 7 8 8 8 8 7 6 6 7 7 6 7 6 6 6 6 6 6 6 7 8
15 15 14 15 14 8 7 9 10 15 14 14 25 27 16 12 16 19 19 25 22 21 21 23 25 24 25 26 26 26 26 27 28 28 29 28 27 26 23 23 26 22 19 22 20 20 18 19 19 19 18 17 15 13 15 16 16 13 12 11 10 11 11 10 11 13 11 11 12 12 11 12 11 10 10 9 11 10 7 8 7 6 6 8 9 8 8 6 7 8 8 8 6 6 6 6 7
10 16 18 20 15 15 8 9 7 13 13 8 19 12 12 11 12 13 17 20 19 15 17 18 22 24 23 25 27 28 26 24 27 27 27 29 26 23 23 24 24 23 20 21 21 20 19 21 21 19 18 18 16 17 14 16 16 15 12 12 11 10 12 11 12 12 11 12 11 12 11 12 12 10 12 11 9 11 8 8 7 7 6 7 7 6 6 6 6 7 8 7 6 6 6 7 6
21 16 16 15 18 24 11 14 13 14 7 7 8 11 10 13 17 18 12 16 18 17 18 13 20 24 24 23 26 26 26 25 24 24 25 26 25 23 22 22 22 24 22 21 24 21 21 22 21 21 21 18 18 17 15 16 15 14 13 12 12 11 10 10 11 10 10 13 12 13 12 12 12 11 10 11 9 12 10 9 8 7 6 6 6 6 6 7 7 8 7 6 6 6 8 6 5
18 19 15 19 18 21 10 8 9 12 11 9 8 12 10 14 14 14 18 20 13 18 16 15 18 21 22 23 24 24 25 29 29 25 25 26 25 24 24 23 23 23 26 25 24 24 23 22 22 20 19 18 17 17 17 15 16 12 14 13 12 11 11 10 12 10 11 11 13 11 13 13 10 11 10 11 12 10 11 11 9 8 7 6 6 6 7 7 7 7 8 6 6 6 6 7 6
19 12 16 15 15 15 13 5 10 9 8 8 10 8 12 12 10 13 19 19 22 26 21 23 19 19 22 20 21 23 23 24 26 25 26 28 28 27 26 25 25 25 25 24 24 22 23 23 22 23 20 21 21 19 17 16 16 14 14 16 13 13 13 12 11 11 11 11 10 11 11 12 11 12 12 10 12 11 11 11 10 9 8 7 7 7 6 7 7 8 7 8 8 7 6 5 6
15 16 13 15 13 16 9 9 8 8 8 9 12 11 12 11 11 10 10 18 23 29 29 28 21 22 23 21 21 21 22 21 24 25 26 27 27 27 26 25 27 25 24 26 25 23 25 22 23 24 24 22 21 20 17 17 17 17 16 15 14 13 11 11 12 11 9 11 11 11 12 14 11 11 12 11 11 11 10 9 9 10 9 9 8 8 6 8 7 9 7 9 7 8 7 7 7
14 10 10 14 15 9 9 12 12 13 9 7 13 13 13 8 8 12 16 19 24 30 23 22 26 24 23 21 24 24 21 21 23 25 25 27 27 27 27 26 27 27 29 27 24 23 22 23 22 21 21 20 20 21 19 18 22 20 18 16 14 15 14 13 12 13 11 10 12 13 11 10 13 11 13 13 12 11 11 10 10 11 11 9 9 8 7 8 8 9 8 9 8 8 8 8 7
12 16 10 11 11 13 15 12 12 12 10 11 12 8 12 15 11 12 11 21 29 31 26 17 18 23 18 20 22 20 21 18 21 22 26 26 26 26 26 25 27 26 26 25 26 26 25 23 22 23 22 23 20 21 22 21 21 22 18 17 16 15 14 13 11 14 12 13 12 12 14 14 12 12 12 13 12 12 12 11 11 12 11 10 9 10 8 9 9 9 8 9 7 10 10 9 9
15 13 13 14 9 11 10 9 20 12 15 11 10 7 16 27 21 14 11 15 17 17 21 17 20 22 19 15 15 17 19 17 19 19 23 26 25 26 27 27 25 26 27 25 25 22 24 25 25 24 22 23 22 21 20 21 20 20 18 17 17 15 16 16 13 13 14 13 12 12 13 11 13 13 13 15 14 12 12 12 12 12 11 12 11 11 10 9 11 9 9 10 9 11 11 10 9
Wind_Speed
5 5 2 2 1 2 2 0 1 2 1 5 1 3 5 3 5 2 5 2 4 4 2 10 9 2 3 6 14 10 9 2 1 6 5 3 4 8 10 9 8 6 6 3 3 4 5 9 11 10 10 11 11 11 11 12 12 12 12 12 13 13 13 13 13 13 13 12 13 12 12 12 12 12 12 12 12 12 12 12 11 11 10 11 11 11 11 11 11 11 11 11 11 11 11 12 12
5 2 1 2 3 3 2 3 1 0 1 3 7 1 7 2 6 4 6 5 4 4 10 15 17 19 20 16 13 11 11 7 3 3 5 6 9 7 9 9 8 9 5 4 4 4 4 7 11 11 10 11 11 10 11 12 12 12 12 12 13 13 13 13 13 13 13 13 13 13 13 12 13 12 12 12 12 12 12 12 11 11 11 11 11 11 11 11 11 12 12 11 11 12 12 12 12
3 1 1 1 0 1 1 0 1 3 4 9 6 7 3 2 8 5 11 14 14 11 14 12 11 9 8 4 8 4 2 4 9 6 6 9 11 7 8 8 7 7 6 4 3 3 3 6 11 12 11 11 11 11 12 12 12 12 12 12 13 13 13 13 13 13 13 13 13 13 13 13 13 13 13 13 13 13 12 12 12 12 11 11 11 11 11 11 12 12 12 11 11 12 12 12 14
2 1 3 3 1 1 0 0 2 6 7 5 4 5 7 6 4 11 15 16 14 12 7 5 7 6 6 13 8 12 9 6 2 7 7 7 2 9 8 8 8 5 5 4 3 3 3 7 11 11 11 11 11 12 12 12 12 12 12 12 12 13 13 13 13 13 13 13 13 13 13 13 14 13 13 13 13 13 13 12 12 11 11 11 11 11 11 11 12 13 12 12 11 11 13 15 13
2 2 4 2 2 1 2 4 4 3 6 5 3 2 5 7 13 14 13 12 9 7 7 7 7 5 8 9 1 1 5 4 3 2 4 4 7 8 9 8 6 6 5 4 4 3 4 11 11 11 12 12 12 12 12 12 12 12 12 12 13 13 13 13 13 13 13 13 13 13 14 14 14 14 14 13 13 12 12 11 11 10 10 10 10 11 11 11 12 12 12 12 11 11 13 15 12
2 1 1 1 2 1 0 1 2 7 6 4 2 3 4 11 12 12 10 8 8 7 9 6 7 6 5 4 2 5 8 5 5 2 4 6 9 9 9 8 6 6 6 4 4 3 3 11 11 12 12 13 13 13 13 12 12 12 13 13 13 13 13 13 13 13 13 13 13 13 13 14 14 14 13 13 13 12 12 11 10 9 9 9 10 10 10 10 12 13 13 12 11 11 14 15 12
3 2 1 1 3 1 4 3 7 8 2 2 1 3 6 7 13 16 12 9 9 12 6 13 16 13 10 3 6 3 3 5 4 3 4 9 10 9 9 7 7 7 6 5 4 3 5 11 11 12 12 13 13 13 13 13 13 12 12 12 13 13 13 13 13 13 13 13 13 13 13 14 14 13 13 12 12 12 11 11 10 10 10 9 9 10 9 10 11 13 13 12 11 11 13 14 13
1 1 3 4 2 1 3 4 8 1 4 6 3 2 7 14 11 13 10 11 5 6 5 9 5 11 5 2 4 1 4 2 7 9 12 10 9 8 8 7 7 6 6 5 4 4 10 12 12 12 12 13 13 13 13 13 13 13 13 12 12 13 13 13 13 13 13 13 13 13 13 13 13 13 12 12 11 10 10 10 10 10 10 9 9 9 9 9 11 12 12 11 11 11 12 13 14
1 1 1 2 2 1 2 7 3 3 5 2 5 6 8 9 9 11 9 5 10 7 10 11 6 12 3 8 5 5 5 6 9 11 10 10 10 8 6 7 8 7 6 5 3 3 4 12 12 12 12 12 13 13 13 13 13 13 12 12 12 12 12 12 12 12 12 13 13 13 13 13 12 12 11 11 10 9 9 9 9 9 9 9 9 9 8 8 9 11 10 11 11 11 11 13 14
2 2 4 3 3 6 3 5 2 4 4 4 6 5 9 7 11 16 15 8 8 7 2 3 4 13 11 12 8 5 6 8 10 9 9 9 8 7 7 7 7 9 6 4 4 3 4 11 12 12 12 13 13 13 13 12 12 12 12 12 12 12 12 12 12 12 12 12 12 12 12 12 12 11 10 9 9 8 8 8 8 8 8 8 8 8 7 7 8 10 10 10 11 10 12 13 15
2 1 1 1 2 5 7 4 2 3 5 2 5 4 4 7 13 11 11 12 7 9 9 17 13 15 9 7 3 2 6 9 11 10 8 8 7 8 7 7 7 7 7 6 4 3 4 5 13 13 12 12 12 12 12 12 12 12 12 12 12 12 12 12 12 12 11 11 12 12 11 11 11 10 9 8 8 7 7 7 7 7 8 8 8 7 7 7 8 9 9 9 11 11 12 12 14
2 3 2 2 4 7 6 3 4 3 2 2 2 6 2 8 10 10 12 13 7 13 9 4 6 11 11 7 4 6 7 7 8 8 7 7 8 8 8 6 7 6 6 6 5 4 3 4 5 10 12 12 13 12 12 12 12 12 12 12 12 12 12 11 11 11 11 11 11 11 11 10 10 9 8 7 7 6 6 6 6 7 7 7 7 7 7 7 7 8 8 9 10 11 12 11 11
3 4 5 1 4 4 3 4 6 4 1 4 6 2 3 9 10 14 10 13 9 8 3 7 18 5 6 5 5 6 9 7 7 8 7 7 7 7 6 6 7 7 6 7 5 4 4 3 4 4 9 13 12 12 11 11 12 12 12 12 12 12 11 10 10 10 10 10 11 11 10 10 9 9 8 7 6 5 5 6 6 6 6 6 6 6 6 5 6 7 8 8 9 11 11 10 11
4 5 4 4 1 3 6 4 1 4 3 5 4 6 4 4 5 12 13 10 2 2 5 17 9 10 10 7 8 7 8 8 8 8 7 8 7 7 8 6 7 6 5 5 6 5 4 4 4 3 5 5 4 8 10 11 11 11 12 12 12 11 11 10 10 10 10 10 10 10 10 9 9 8 7 7 5 5 5 5 6 6 6 6 6 5 5 5 4 6 7 8 9 11 10 11 13
5 1 1 2 3 1 1 1 4 3 6 6 5 7 4 4 8 7 15 16 8 9 11 5 8 8 7 11 7 8 10 10 9 8 8 8 8 8 7 6 6 5 4 4 4 5 5 4 4 4 4 3 3 3 3 7 11 11 11 11 11 11 10 10 10 9 9 9 10 9 8 8 7 8 8 7 5 4 5 5 5 6 6 6 5 5 5 4 3 4 6 6 9 10 10 11 12
5 2 1 2 3 3 2 4 4 4 4 2 0 8 12 7 4 5 4 4 5 3 1 3 1 2 11 10 14 14 14 11 9 9 10 10 8 7 6 6 5 4 4 4 4 4 4 4 4 4 4 3 3 3 4 4 8 11 10 10 10 9 9 8 8 7 8 8 8 8 8 3 4 3 7 4 6 6 5 3 4 3 4 5 4 4 4 4 2 3 5 7 9 10 10 10 12
3 2 2 3 3 3 2 3 7 6 2 4 5 5 7 4 3 6 6 6 17 1 5 4 2 2 16 3 13 16 14 12 10 11 10 8 7 6 5 5 5 3 3 3 3 4 4 5 4 4 4 4 4 4 3 3 5 9 8 8 9 8 8 7 7 6 5 4 5 6 6 1 1 2 2 1 4 2 5 4 3 3 3 3 3 3 4 3 2 1 3 6 9 9 8 10 14
4 4 4 6 2 1 5 5 7 9 11 7 4 7 17 10 3 5 12 13 13 10 10 4 11 10 7 9 15 15 14 14 12 13 10 9 6 6 6 5 5 5 4 3 3 4 4 4 5 4 4 5 4 4 3 2 2 4 3 2 2 3 5 4 2 1 2 1 5 4 3 1 1 1 1 1 1 1 3 5 3 3 2 3 4 2 4 3 2 1 0 4 8 9 8 6 8
3 2 5 6 2 7 6 7 4 6 9 9 7 3 13 9 10 3 10 3 11 14 8 10 13 12 12 13 14 14 14 13 13 12 12 11 8 9 7 5 5 5 5 4 3 4 4 4 4 5 5 4 4 3 2 1 1 3 2 3 2 3 2 3 3 3 4 4 4 2 1 2 2 3 4 5 2 3 3 6 6 5 5 6 5 4 3 3 2 2 1 3 5 7 6 6 6
2 2 4 5 5 6 6 9 10 8 13 12 9 3 13 7 2 2 7 7 10 16 13 10 15 15 13 14 13 13 13 13 12 11 11 10 9 9 8 8 6 5 5 4 4 3 5 5 6 5 5 4 3 2 2 2 2 3 2 2 3 3 4 3 3 1 4 5 5 5 5 4 4 6 8 10 8 4 5 8 9 9 9 8 7 5 4 1 3 2 1 3 3 3 5 6 6
2 2 2 5 6 5 7 3 10 7 13 11 11 5 9 2 3 5 11 12 4 5 8 17 17 18 15 14 14 13 13 12 11 10 10 9 8 6 7 8 7 6 5 3 3 4 5 5 4 3 3 3 3 3 3 3 2 1 4 2 4 4 5 4 2 3 5 6 6 6 6 4 5 5 4 5 6 5 5 5 5 5 3 3 5 5 4 2 2 2 0 0 1 3 4 6 8
2 4 4 5 3 4 4 6 7 7 4 15 9 11 6 5 9 10 7 9 6 8 7 12 18 17 18 16 14 11 12 12 11 10 10 9 10 8 5 4 3 4 5 5 5 4 4 5 4 4 3 3 3 3 4 3 3 2 4 5 6 5 5 4 5 6 6 5 5 6 6 6 6 6 5 5 5 5 5 5 5 4 4 3 4 4 4 4 1 2 3 2 2 4 3 6 8
2 3 4 7 8 5 1 3 9 14 6 9 7 4 5 7 5 2 4 3 4 5 10 13 15 15 14 13 13 12 12 11 10 10 9 9 9 8 7 6 7 7 5 5 4 4 4 3 3 2 2 1 3 3 2 1 2 3 4 5 7 5 5 6 6 6 6 5 5 5 7 6 5 5 6 5 5 4 5 3 3 2 4 6 4 6 5 4 2 2 2 3 1 4 3 5 9
3 3 5 14 11 2 9 9 10 10 12 5 4 7 11 11 9 1 5 3 8 9 11 12 13 12 13 13 11 13 11 11 9 7 8 10 11 10 9 9 6 4 5 5 4 4 4 4 3 1 3 5 4 4 4 5 5 7 6 5 6 6 6 6 6 6 6 6 4 5 5 6 5 5 4 5 3 4 4 3 3 5 6 5 3 5 5 5 5 1 2 3 3 3 4 6 9
1 2 4 9 7 3 1 6 11 11 10 9 12 12 5 10 6 3 4 5 10 11 10 12 12 12 11 11 11 11 9 8 7 6 6 6 8 8 7 6 6 6 6 5 4 4 4 3 1 2 3 5 5 4 5 6 7 6 6 6 6 5 6 6 5 5 6 5 4 4 4 6 6 5 4 3 2 5 3 4 4 4 5 5 5 5 5 5 4 3 1 4 4 4 5 6 7
0 2 2 2 5 5 7 7 11 12 8 14 17 12 10 13 14 9 2 6 10 11 11 11 11 11 11 10 10 10 9 9 8 8 9 7 8 9 8 7 7 7 7 6 5 4 3 1 3 4 4 5 6 5 5 6 6 7 6 6 6 5 5 5 5 5 5 6 5 4 4 5 5 3 3 3 4 4 3 4 5 5 5 5 5 6 5 4 4 2 2 5 8 5 4 4 4
3 5 6 4 6 11 15 7 4 6 5 14 14 10 7 1 6 2 1 6 10 12 11 10 11 11 10 8 8 8 9 10 10 8 8 7 8 9 8 7 7 7 6 6 4 4 1 3 3 4 4 3 4 5 5 5 5 6 6 6 6 6 5 5 5 6 5 6 4 4 4 4 4 3 3 3 3 3 4 4 5 4 6 5 5 5 4 4 3 3 4 6 6 5 5 5 5
4 5 9 13 7 14 12 14 10 4 4 10 16 8 2 3 5 10 9 7 11 13 11 10 9 9 9 8 8 7 7 6 7 9 11 10 9 8 8 8 7 7 7 7 5 3 3 3 3 3 4 4 6 5 4 5 5 6 6 6 6 5 5 6 5 5 5 4 4 4 4 4 4 3 3 3 3 3 4 5 4 5 4 5 4 4 5 4 3 4 5 5 6 7 7 6 5
0 5 11 7 6 8 9 7 10 4 3 4 10 8 3 2 6 9 10 8 11 12 11 9 9 8 8 8 7 7 8 7 7 8 9 7 7 8 10 8 9 8 5 7 4 4 4 4 5 4 4 4 5 6 6 5 5 4 6 6 5 5 5 5 6 6 5 4 4 4 3 4 3 4 3 3 3 3 3 4 4 3 3 3 4 3 3 4 5 5 6 5 7 8 7 5 5
4 7 8 5 4 4 2 4 5 6 3 5 5 1 4 1 7 8 8 11 10 11 9 8 7 7 7 8 7 7 6 7 8 8 7 7 7 8 9 8 9 8 7 4 4 5 4 3 3 3 4 6 6 6 5 5 4 5 5 6 5 5 5 6 5 5 5 4 4 4 4 4 4 4 4 4 3 4 3 3 3 4 4 4 3 3 5 5 5 6 5 7 6 7 7 5 7
5 1 6 4 2 4 3 3 8 2 3 2 3 2 2 1 7 8 8 12 14 11 9 8 7 7 7 7 7 7 7 7 9 8 7 7 7 7 9 8 8 7 6 5 6 5 4 4 4 4 4 5 5 5 6 5 4 5 6 5 4 5 5 6 6 5 5 4 3 3 3 4 4 4 3 4 3 3 3 3 4 3 3 3 3 3 4 5 5 5 5 7 6 7 7 6 7
4 5 4 1 2 2 7 7 6 2 0 2 6 2 4 3 8 7 7 9 10 10 8 8 8 8 8 7 8 8 7 7 7 8 8 8 8 8 9 9 8 7 8 7 5 4 5 4 5 5 4 5 6 5 4 4 5 4 5 4 5 4 6 6 6 5 5 4 3 3 3 4 4 4 4 3 4 3 3 3 2 3 3 3 4 4 5 6 4 5 3 6 8 6 8 6 6
5 6 1 2 2 1 6 6 9 5 3 2 2 3 2 1 5 6 5 10 9 10 8 8 8 9 9 9 8 7 7 6 7 8 8 8 7 8 9 9 9 9 8 6 6 5 5 4 5 5 5 6 5 4 4 4 6 5 4 4 5 6 6 6 5 5 5 5 3 3 3 4 4 4 4 3 4 3 3 4 3 3 3 3 4 4 5 4 3 5 4 3 6 6 7 6 6
5 4 2 1 1 1 1 6 4 5 2 3 1 5 4 3 9 7 5 9 9 10 10 10 9 9 8 8 8 8 8 8 9 9 10 8 8 9 8 9 9 9 7 7 7 7 7 5 5 4 4 4 4 5 4 5 5 5 4 3 5 6 5 5 6 5 5 4 3 4 4 4 4 4 4 4 4 3 3 3 3 4 3 4 5 5 4 3 4 4 5 3 4 7 6 7 5
2 1 3 3 2 1 4 1 4 4 6 4 2 3 4 6 9 9 8 9 10 10 10 10 10 10 9 8 8 9 9 9 9 9 10 9 10 9 8 9 8 8 6 8 7 6 6 5 4 4 3 4 4 5 4 4 4 4 4 5 7 6 5 4 5 4 3 4 5 4 4 3 3 4 4 4 5 4 4 3 4 3 3 5 5 5 5 5 5 5 6 6 6 5 5 5 6
7 7 3 2 3 2 2 1 5 1 4 6 3 5 4 7 9 8 7 8 10 9 8 7 9 10 9 9 9 9 9 9 8 8 10 9 9 8 8 8 8 7 8 8 8 7 6 5 4 4 4 4 4 4 4 4 5 4 5 5 6 4 4 4 3 4 4 5 4 5 4 3 3 4 4 4 4 3 4 3 3 3 4 5 5 5 5 5 4 5 5 6 7 5 4 3 4
5 3 2 1 0 2 1 8 3 6 2 6 2 1 6 10 13 13 11 7 7 6 9 9 10 10 10 9 10 10 10 10 9 10 10 10 11 8 9 9 8 8 8 8 8 7 7 8 6 5 4 4 6 5 3 4 4 3 3 4 5 4 5 4 3 2 4 4 4 4 4 3 4 4 4 4 4 3 3 3 4 3 4 4 4 3 3 3 3 3 3 3 5 5 4 3 3
10 5 2 0 1 2 2 2 2 1 2 3 2 2 7 10 10 10 8 8 11 10 9 10 10 11 10 11 11 11 9 5 9 8 9 9 9 10 9 8 8 10 8 8 9 8 7 7 7 6 3 4 6 6 4 4 3 4 3 4 3 4 5 6 3 3 3 4 4 4 4 4 4 4 3 4 4 4 3 3 3 3 4 4 3 3 4 4 5 5 3 5 3 4 2 3 2
5 7 5 1 3 3 1 3 3 3 4 4 3 1 3 4 7 8 11 14 11 10 11 12 12 12 10 10 11 10 8 9 8 9 10 10 11 10 9 8 8 10 9 9 9 8 7 7 7 5 4 5 5 5 4 4 1 2 3 2 5 2 0 3 4 3 4 5 4 5 4 4 4 3 3 3 4 4 4 3 3 3 3 2 4 5 4 6 5 5 4 6 4 3 3 3 4
5 5 3 1 2 2 4 1 1 2 2 2 2 1 2 2 3 8 10 11 7 7 10 11 12 14 12 12 12 12 11 11 11 11 12 11 11 10 9 9 9 8 8 8 8 9 7 7 6 5 5 5 4 4 4 4 4 4 2 5 4 5 3 2 4 3 4 6 5 4 4 4 3 4 4 3 3 3 4 4 3 4 3 3 4 5 5 4 4 4 4 3 5 3 2 2 2
1 5 3 1 2 2 3 2 2 1 0 0 2 3 4 3 3 6 7 6 4 5 6 8 9 10 12 11 12 14 15 15 13 12 11 11 12 11 11 10 9 9 9 9 9 9 6 8 7 7 6 5 4 4 4 4 3 3 4 2 3 5 6 4 4 2 2 4 4 5 4 4 4 4 4 4 3 3 3 3 4 4 4 3 4 5 5 4 4 4 4 4 3 6 2 0 1
3 2 3 2 0 1 0 0 1 4 2 1 1 2 4 3 5 9 7 6 7 6 8 9 9 8 10 11 13 13 14 15 16 15 14 13 13 9 9 10 10 9 9 9 9 9 8 7 7 6 5 4 4 4 4 3 4 5 4 5 5 4 4 5 5 5 4 4 5 3 4 4 4 3 3 3 3 3 3 3 4 4 4 5 6 5 4 4 5 5 3 4 4 1 5 3 1
4 3 5 8 7 3 2 2 2 1 2 2 1 4 5 4 4 5 7 10 11 5 9 10 9 8 10 12 12 12 13 11 10 13 13 12 12 11 11 11 11 11 9 8 8 8 9 9 8 8 7 6 4 4 4 4 4 4 6 6 6 6 7 3 2 3 5 4 4 4 4 3 4 4 3 3 4 3 3 3 4 4 4 4 3 5 6 5 4 3 2 5 3 3 4 3 2
3 4 6 11 9 5 2 3 2 3 1 3 1 1 0 6 7 4 9 11 11 9 9 10 9 7 11 12 13 12 13 13 13 13 14 14 14 14 14 13 11 12 10 9 8 8 10 9 8 7 6 6 4 4 3 6 6 5 6 5 5 6 6 5 4 4 3 4 5 4 4 4 4 4 3 3 4 4 3 3 3 4 4 3 4 5 5 4 5 3 4 4 4 4 5 6 2
6 4 10 12 10 7 6 5 3 1 2 5 1 3 1 4 6 1 10 9 10 12 11 11 9 9 11 12 13 14 14 14 14 13 14 14 14 13 12 11 9 10 11 11 10 9 9 9 8 6 7 6 4 4 4 5 7 7 7 6 5 4 4 4 4 3 5 3 5 3 4 3 3 3 3 3 1 3 3 4 4 4 4 4 3 4 3 4 4 4 4 5 5 4 4 3 5
0 8 8 6 8 6 4 2 3 1 2 4 3 6 3 6 5 1 3 9 12 13 13 11 11 11 11 12 13 13 13 12 13 16 16 15 14 13 11 10 9 10 10 10 10 9 9 8 8 7 8 6 5 5 5 7 7 7 7 5 6 4 2 2 5 5 4 4 5 4 3 3 3 3 2 3 4 4 4 5 4 4 4 4 3 4 4 4 4 4 4 5 4 5 3 4 5
12 12 10 6 6 3 2 2 2 3 2 7 6 9 6 3 5 6 8 9 14 9 6 8 9 9 10 13 14 13 12 12 12 13 14 14 14 13 11 13 11 8 9 11 10 10 10 10 8 8 9 7 5 7 5 8 6 6 7 6 6 5 4 5 4 4 3 3 4 4 4 4 3 3 3 2 4 4 4 4 5 4 4 3 4 4 4 4 4 4 4 4 5 5 4 5 4
15 5 5 6 2 1 3 2 3 3 3 8 4 11 6 3 6 5 9 1 6 11 13 14 12 12 10 10 13 14 13 13 13 13 12 11 10 11 10 11 12 11 10 11 10 10 10 10 9 9 7 7 6 7 6 7 7 6 6 6 6 5 6 6 7 7 6 6 5 5 4 3 3 3 3 4 4 4 4 4 4 4 4 4 5 4 3 3 4 4 4 4 4 4 4 5 4
6 7 4 4 1 2 2 2 1 2 5 2 3 8 3 8 11 8 3 7 5 10 11 14 15 13 10 10 13 13 12 13 13 13 12 12 13 13 12 11 11 11 11 12 12 11 10 11 11 11 9 7 8 7 8 6 6 7 6 6 6 5 6 6 7 7 6 7 6 5 5 5 3 3 3 4 4 5 4 4 4 5 4 4 4 4 4 4 4 4 4 4 4 4 4 5 5
5 7 5 5 3 2 0 2 1 3 5 3 2 6 2 4 7 10 12 11 9 9 9 11 14 14 13 12 12 12 13 14 14 13 13 13 13 13 13 12 13 11 12 12 12 11 10 10 11 12 11 8 8 8 8 8 7 7 6 7 6 5 6 6 7 7 6 6 6 7 7 6 6 6 5 5 5 5 4 5 4 4 4 5 5 5 5 4 4 4 4 5 4 4 4 4 4
5 1 5 5 7 4 2 2 1 1 2 4 2 3 4 1 2 3 7 8 6 6 7 9 13 14 14 13 13 14 14 13 13 14 14 14 15 15 14 13 12 12 13 13 12 12 11 11 12 12 11 8 8 10 8 8 8 7 6 6 6 5 6 6 6 7 7 6 5 6 6 6 6 6 7 6 4 4 4 4 4 4 4 5 5 4 4 4 4 4 4 4 4 3 4 4 4
0 2 3 4 4 5 1 5 2 1 1 2 1 3 3 2 3 5 1 2 4 6 5 6 8 8 9 10 12 13 13 13 13 14 14 15 15 15 13 12 12 12 14 13 13 12 12 13 13 13 14 11 10 10 9 9 8 7 7 7 7 6 5 6 6 6 6 6 7 6 7 6 6 6 5 4 5 5 5 5 4 4 4 4 4 4 4 4 4 5 3 4 4 3 4 4 3
3 2 1 4 3 7 3 2 1 3 4 1 1 5 4 6 4 8 4 3 1 3 5 6 7 7 10 11 12 12 12 13 13 13 14 15 14 14 14 14 13 13 13 14 15 15 15 13 13 13 12 10 10 11 11 9 8 7 7 8 7 6 6 6 7 7 7 6 6 7 7 8 6 5 6 4 6 4 5 5 5 5 4 4 4 4 4 4 4 4 4 4 4 3 4 4 4
6 1 5 1 2 5 2 0 2 3 2 1 1 1 5 5 1 6 4 3 1 4 2 5 6 8 11 11 12 13 14 15 16 16 16 17 17 17 15 14 15 16 16 15 16 14 14 14 14 14 12 12 11 11 11 10 9 8 8 8 7 8 7 7 7 7 7 6 5 5 5 5 6 7 6 5 6 6 5 5 5 5 4 4 4 4 4 4 5 4 5 5 5 4 4 3 3
5 3 6 5 1 2 3 2 2 1 1 2 3 2 1 1 2 3 2 0 1 1 2 4 5 7 11 12 13 14 14 13 13 14 14 14 15 16 16 16 16 16 16 16 15 14 13 12 14 15 16 14 14 11 10 10 10 8 7 8 8 7 6 6 6 6 5 6 7 7 7 8 7 5 5 5 6 6 5 5 5 5 4 5 4 4 4 4 4 5 4 5 4 4 4 4 4
5 3 1 0 5 3 1 2 2 5 0 1 2 3 0 2 2 2 4 5 3 2 1 3 4 7 5 4 6 10 11 13 13 14 14 15 16 17 17 16 16 16 16 14 15 13 14 14 14 13 12 12 11 12 11 11 11 9 8 7 7 7 7 7 6 6 6 6 7 8 7 6 8 6 7 7 7 7 6 6 5 6 5 5 5 5 4 4 5 4 5 5 4 4 4 4 4
3 2 2 1 1 2 4 1 1 2 2 2 1 2 2 4 4 2 6 5 5 2 3 3 3 5 6 7 8 9 9 10 11 13 14 15 15 15 16 16 16 14 13 13 14 16 15 13 14 15 14 13 13 13 12 11 9 10 11 10 9 7 8 7 6 6 6 6 6 7 8 8 6 7 7 7 7 8 7 7 7 6 6 6 6 6 4 4 5 5 4 4 4 5 5 4 4
8 5 3 4 2 1 1 2 2 2 3 2 2 1 5 8 2 4 5 6 1 2 3 4 3 3 5 6 6 7 8 7 9 12 13 14 14 15 14 13 11 12 13 15 14 13 14 15 15 14 13 13 14 13 12 11 9 9 11 11 10 8 8 7 7 6 6 6 6 6 8 6 7 8 8 8 8 7 7 7 6 7 7 6 6 6 5 5 6 5 5 4 5 5 5 5 4
Wind_Direction
226 223 207 145 137 133 77 290 128 290 113 254 193 190 252 227 205 141 129 150 59 0 340 53 63 113 129 139 116 98 36 91 219 142 213 143 108 121 125 127 128 122 130 134 126 126 123 131 129 128 127 122 114 109 109 106 101 99 97 95 94 92 91 92 91 90 86 85 82 80 78 77 76 74 71 71 73 74 73 73 73 76 78 77 76 77 78 78 80 79 77 76 73 70 66 65 69
240 256 76 151 193 118 266 160 101 89 62 321 242 166 243 261 152 177 143 106 102 119 81 82 78 83 91 108 117 88 37 28 49 103 86 100 107 109 127 130 132 135 136 128 121 128 142 139 133 125 123 120 116 111 109 105 103 101 98 96 94 93 92 93 92 89 88 84 81 78 77 78 78 77 76 74 73 74 73 73 73 71 70 71 74 77 80 82 81 80 80 79 77 72 71 73 75
257 177 93 150 26 120 297 343 237 184 145 233 269 205 259 203 154 155 120 114 128 131 103 96 93 75 110 121 37 34 92 45 90 78 97 129 124 138 129 129 132 136 133 131 124 137 140 140 135 127 124 121 118 114 110 107 106 103 100 98 97 96 94 93 91 89 87 83 82 80 79 79 79 77 76 74 71 69 70 70 70 70 70 72 75 78 79 78 77 79 80 80 77 76 77 78 75
248 266 152 145 71 356 54 73 127 142 189 213 272 257 184 175 149 124 126 132 133 132 113 63 50 324 113 71 90 78 105 116 38 117 127 150 119 137 135 134 136 122 119 123 130 132 133 136 128 127 129 127 121 115 112 109 107 105 103 100 98 98 98 95 91 90 87 85 82 81 80 79 77 76 74 72 70 69 68 67 70 71 71 72 76 77 77 75 75 77 77 77 76 77 79 76 75
175 257 174 131 114 177 141 205 172 116 222 196 204 281 159 142 131 131 134 138 131 116 102 126 89 34 69 89 44 67 139 107 116 36 98 82 117 134 135 136 130 125 126 134 134 137 142 132 130 130 128 125 121 116 113 112 109 108 105 103 103 102 100 96 94 91 89 87 84 82 80 78 76 73 71 70 68 67 67 67 67 66 67 72 74 76 75 73 72 73 76 77 77 78 80 81 81
163 281 238 129 160 233 162 225 200 199 223 177 136 196 171 146 132 122 116 88 94 93 108 85 127 160 54 37 1 109 141 141 156 73 122 134 134 137 138 140 130 129 133 132 133 138 133 132 132 130 127 123 120 117 114 111 109 107 106 106 105 102 97 96 94 92 90 86 84 82 78 76 74 71 70 68 67 65 65 63 60 60 57 59 65 69 68 68 71 72 75 78 78 79 80 84 83
169 141 102 43 311 135 165 189 199 210 258 219 189 186 159 123 121 111 107 85 58 63 88 109 116 107 82 92 63 18 318 129 122 145 119 138 133 137 140 135 132 128 131 132 134 144 150 134 129 126 124 121 118 116 114 112 110 110 108 107 104 102 100 97 94 92 90 88 85 80 76 74 72 69 67 65 63 63 62 63 62 58 55 53 56 59 65 64 69 73 76 79 77 74 81 85 84
206 120 180 118 240 166 232 207 233 91 267 178 205 182 151 134 130 115 121 114 158 102 105 123 107 88 77 345 129 28 24 10 110 103 117 128 135 139 139 136 125 126 128 126 135 157 140 130 128 127 124 120 118 119 117 116 114 112 110 108 106 103 100 97 96 93 91 88 83 79 76 73 71 68 64 63 61 59 59 60 62 58 54 53 53 55 58 64 68 74 76 77 76 77 80 84 84
280 143 359 106 243 236 244 219 204 175 261 282 170 174 156 134 121 111 97 101 92 98 122 130 118 88 147 102 91 109 76 97 101 113 121 131 136 141 134 131 128 130 126 128 132 139 130 131 128 126 124 122 120 120 119 117 115 113 111 110 108 105 102 99 97 95 92 89 85 82 79 74 71 67 64 62 59 56 53 55 57 59 58 55 54 55 56 61 71 76 76 80 80 75 78 79 88
240 157 156 179 161 202 215 271 117 233 229 255 135 164 134 130 114 110 118 94 117 101 19 33 102 114 134 113 117 118 124 114 113 111 126 133 133 123 121 124 130 129 124 121 130 141 139 131 128 123 121 120 118 117 117 116 114 114 113 112 110 109 106 103 101 100 98 94 91 87 84 79 76 71 66 60 57 54 51 51 54 56 56 56 58 58 58 61 73 77 77 78 83 82 81 85 89
169 175 164 189 204 201 205 220 114 270 194 190 136 79 74 100 107 107 114 126 128 115 117 100 79 120 116 120 92 56 110 121 124 133 139 134 123 121 121 122 124 126 129 131 139 129 125 128 129 127 124 122 121 119 116 116 116 115 117 116 115 113 111 110 110 107 105 101 96 93 89 86 83 80 73 64 58 52 49 48 50 54 55 54 55 56 57 59 72 81 80 78 84 81 80 81 86
140 169 120 167 213 176 219 116 180 208 51 49 41 30 319 105 100 106 119 113 132 133 149 161 147 129 99 124 134 140 126 125 128 132 131 126 120 121 121 119 119 124 127 128 122 117 116 115 122 128 129 127 125 122 119 119 121 122 124 123 122 120 119 118 114 112 106 102 101 99 96 93 89 85 81 75 63 54 46 45 48 50 53 55 54 55 58 61 73 88 88 87 84 84 84 84 83
193 150 145 130 226 197 143 127 216 141 108 165 121 204 183 139 138 140 134 128 151 125 102 140 139 136 121 141 131 138 139 144 137 131 127 126 122 117 109 112 120 125 128 126 121 115 107 111 114 120 134 131 127 126 124 125 126 128 128 130 131 129 124 121 117 112 110 109 107 104 100 94 92 86 82 76 70 60 49 42 44 46 48 52 53 54 59 65 75 91 94 89 87 90 92 89 82
181 168 133 228 212 206 118 194 199 124 211 191 167 163 181 123 151 130 118 99 48 92 131 132 125 108 99 117 145 159 151 145 139 131 122 117 118 115 109 110 114 116 120 127 125 121 115 117 121 125 117 119 128 128 130 130 133 134 136 138 138 133 130 125 122 120 121 117 112 110 109 102 94 89 83 76 67 58 52 43 39 42 46 48 51 52 61 65 77 96 102 91 88 89 89 88 89
203 182 130 208 265 72 157 89 190 203 199 175 175 151 109 0 113 100 110 104 51 100 115 68 143 99 181 159 157 171 153 150 139 132 119 112 114 108 107 107 107 107 107 113 119 123 128 122 114 116 123 124 125 133 142 145 145 145 144 143 141 139 134 133 131 134 129 123 115 119 119 117 101 84 72 63 54 52 50 39 42 40 48 50 44 51 65 69 82 101 107 103 92 91 91 88 82
183 153 148 243 256 110 293 165 219 150 222 180 101 126 83 35 12 99 317 120 125 11 62 167 355 181 164 180 162 150 146 141 137 129 119 114 107 98 101 103 101 106 114 112 118 128 134 127 129 137 141 144 151 171 168 156 153 155 152 148 145 139 136 136 138 138 139 132 127 127 129 108 50 80 83 60 29 35 35 36 45 50 53 60 52 45 54 76 91 107 120 117 103 100 98 91 84
160 140 231 272 283 87 268 239 161 188 179 138 209 138 117 86 51 66 40 89 110 46 70 6 309 44 154 145 131 132 135 136 132 128 122 120 119 111 104 104 109 102 106 103 122 139 137 140 149 150 164 162 174 175 165 163 169 158 155 151 144 142 142 141 145 142 141 134 146 145 125 83 118 94 77 120 34 359 17 10 11 36 13 28 58 49 61 69 43 45 134 122 113 108 105 96 102
154 177 193 257 200 106 227 215 201 166 145 189 188 145 119 126 125 118 74 53 87 80 69 45 52 56 88 113 118 127 132 136 140 138 140 134 134 131 132 135 139 142 137 133 128 139 137 152 163 162 168 178 177 172 173 166 170 140 115 118 115 129 138 127 89 65 74 356 54 103 131 151 112 108 105 20 99 328 331 332 337 345 359 352 334 17 81 74 64 57 94 128 124 122 107 90 97
163 175 173 227 162 232 200 227 167 146 167 157 144 151 122 140 130 166 98 96 98 82 69 86 87 85 97 111 125 129 136 139 145 146 147 146 150 151 147 144 147 140 143 148 147 147 156 162 170 174 175 176 178 177 143 144 116 134 136 105 113 103 85 71 25 47 54 46 56 5 101 118 78 43 56 43 87 237 300 306 316 333 350 345 334 304 156 117 133 149 178 144 130 126 107 96 97
200 155 208 234 218 260 290 224 184 175 138 133 125 135 115 166 89 108 107 129 102 118 120 102 117 125 126 129 132 135 139 144 149 152 153 155 156 155 152 153 152 158 153 162 156 154 163 176 187 184 175 176 170 170 151 170 182 167 97 64 71 79 68 78 49 7 65 73 63 67 60 30 9 34 36 40 38 22 335 332 333 342 5 348 13 20 14 326 184 185 202 171 131 74 84 97 99
211 156 201 226 196 233 270 244 145 136 132 124 118 138 98 102 82 106 132 90 58 132 152 142 144 140 138 141 140 144 144 150 155 158 159 157 159 162 159 160 160 156 158 151 154 167 175 185 191 187 185 177 168 186 171 194 214 122 96 147 112 114 93 87 125 93 72 70 68 69 54 49 50 45 33 42 38 21 14 7 359 17 5 1 7 36 27 346 258 216 295 4 137 96 95 107 113
303 194 215 220 282 263 252 78 71 79 85 117 125 111 123 99 75 115 134 129 186 179 181 143 142 144 145 149 148 146 152 156 160 164 166 163 162 156 142 122 116 129 148 152 176 170 189 191 189 193 194 192 186 192 189 194 165 103 123 124 116 120 130 116 84 73 63 63 73 65 52 43 40 41 35 33 36 27 28 12 4 6 32 25 26 36 22 28 268 237 179 193 216 94 113 123 122
305 295 321 328 288 240 165 182 121 118 113 114 112 134 95 85 87 36 74 141 178 149 149 146 142 146 144 141 145 152 157 163 166 170 168 160 157 150 149 152 151 152 160 170 169 184 196 205 201 187 193 183 221 210 157 100 92 128 132 138 116 97 91 88 83 80 75 66 64 72 70 52 41 43 33 33 27 27 34 13 358 352 37 32 13 31 29 7 11 251 214 203 136 94 112 126 125
127 261 335 308 293 187 171 166 130 115 124 113 114 104 101 112 86 313 63 331 123 124 135 135 134 136 141 145 154 157 162 164 170 171 165 161 157 155 153 155 154 139 141 162 177 188 194 210 203 153 193 156 158 118 125 151 144 128 135 105 99 123 104 96 97 101 91 77 63 67 94 83 58 44 36 36 360 36 22 3 3 25 28 26 20 37 17 14 350 339 200 194 129 135 141 146 139
111 353 313 295 290 20 252 118 113 110 99 110 90 84 100 96 121 96 31 87 112 115 123 129 135 139 145 147 153 158 159 159 153 152 142 144 149 141 139 140 143 144 149 167 180 188 205 197 103 145 126 119 117 148 118 105 104 107 107 112 117 107 102 109 115 97 92 90 79 74 74 67 53 47 43 21 14 45 14 16 15 27 18 19 19 18 23 357 357 319 328 162 138 170 150 152 141
97 105 320 298 0 357 77 97 113 112 108 100 85 93 100 107 87 53 78 99 116 121 123 134 139 143 150 154 155 158 158 156 149 145 147 146 143 139 145 146 147 152 163 162 175 190 201 94 148 151 126 132 140 116 117 104 107 106 103 109 117 107 116 120 97 86 92 90 91 88 80 87 76 65 51 27 53 43 33 22 22 18 21 12 19 12 356 5 343 341 98 109 143 176 147 137 101
126 91 50 33 33 46 28 359 48 88 93 110 109 117 128 276 79 122 51 132 122 122 129 142 145 150 151 150 153 157 154 156 154 140 132 142 148 148 149 146 151 155 152 165 177 185 143 123 109 119 140 134 111 102 100 103 102 109 113 120 122 126 129 110 100 96 81 82 79 77 72 75 83 57 58 56 42 59 40 38 15 11 26 6 6 1 353 2 346 350 62 87 119 117 105 104 111
109 135 56 22 29 68 53 11 343 65 44 106 115 121 100 19 78 150 161 155 135 130 140 145 149 151 153 149 152 154 149 148 143 146 150 155 159 156 154 156 155 155 157 171 181 142 115 120 114 124 132 121 105 105 107 110 115 119 115 113 119 121 116 111 104 94 84 78 78 70 67 72 80 60 59 53 74 67 57 44 21 29 16 359 1 359 353 5 27 9 39 62 84 94 91 87 106
26 105 74 348 4 48 63 68 320 342 78 110 110 79 21 18 135 154 151 143 136 135 142 148 148 151 153 148 148 155 155 151 152 156 162 158 153 158 156 162 155 156 169 167 161 134 128 138 122 129 115 106 112 119 117 125 124 107 109 123 131 135 126 105 98 100 103 102 86 82 77 76 66 71 60 78 90 82 77 53 32 22 4 357 355 355 1 21 39 33 43 62 76 82 82 81 94
77 28 108 17 19 70 42 168 169 88 183 183 112 66 260 322 142 152 152 139 131 130 143 149 152 150 152 151 153 153 154 149 161 165 162 157 155 159 155 162 158 155 160 151 138 139 142 149 128 126 110 105 112 122 122 121 125 113 114 131 135 111 89 104 106 111 110 101 96 90 83 72 61 54 83 85 98 84 68 63 57 16 351 0 9 12 38 36 51 59 64 73 77 86 87 89 98
64 322 59 20 360 112 318 352 351 113 201 213 74 144 276 109 165 159 163 146 144 147 150 152 152 149 153 152 154 156 166 167 164 164 163 156 151 154 155 157 158 156 145 148 154 155 145 143 134 117 116 105 111 120 124 129 110 108 107 101 116 109 133 107 107 95 94 99 91 91 92 78 64 62 75 101 71 79 65 43 34 349 353 14 29 19 54 48 62 74 88 90 85 81 83 75 88
23 55 5 277 114 284 324 345 340 259 267 39 83 67 235 183 178 176 162 149 145 145 154 154 155 154 156 159 159 161 171 169 163 164 163 158 152 155 158 163 160 156 157 160 146 134 140 138 124 122 112 115 124 134 130 117 110 115 121 123 111 128 119 113 112 115 113 103 109 109 98 84 69 66 74 89 83 58 71 67 23 10 16 33 41 31 42 41 59 82 51 103 95 87 89 71 75
23 82 85 9 8 342 344 2 342 315 311 3 126 183 86 119 200 177 168 148 151 148 156 168 163 162 163 166 167 165 162 167 164 167 165 159 159 158 163 163 162 161 160 152 142 145 135 132 121 124 134 122 114 106 101 114 116 120 121 123 122 120 123 119 121 127 120 124 136 110 89 87 76 76 82 93 92 75 73 69 25 26 25 50 49 37 41 30 61 87 57 44 104 106 96 96 82
16 35 103 261 57 332 69 282 282 330 269 233 57 120 207 176 164 180 169 159 157 159 166 171 172 166 171 169 166 169 169 167 171 170 168 164 162 163 161 164 161 159 157 145 149 146 142 140 133 134 146 114 121 127 132 129 126 120 107 116 98 97 106 116 126 123 130 143 140 124 109 93 87 87 87 83 79 82 78 74 39 30 44 50 52 45 26 36 50 81 84 43 90 106 101 108 105
128 73 40 330 333 241 244 141 305 333 294 223 180 102 184 155 164 184 179 176 165 171 172 173 173 172 170 170 172 174 173 173 176 172 165 165 163 160 160 162 158 155 150 150 150 142 133 135 131 134 130 109 117 121 130 116 110 98 84 74 90 96 97 116 126 123 154 139 118 122 112 100 88 72 73 70 81 74 68 56 53 35 60 61 55 45 28 24 50 45 89 79 63 75 117 123 122
147 154 191 167 157 244 222 40 314 69 247 300 218 182 164 163 171 187 190 180 176 178 174 165 171 177 174 171 173 175 178 178 173 167 164 163 162 158 159 162 156 152 151 152 145 140 136 133 130 125 118 122 121 114 120 120 118 108 90 70 80 93 111 120 107 126 122 108 116 106 103 102 87 83 78 76 78 81 77 65 64 46 59 66 56 44 25 30 41 60 56 88 76 67 61 89 111
105 93 86 273 255 271 322 129 222 320 275 236 222 349 168 175 182 189 187 179 183 174 177 176 174 179 177 175 175 177 178 176 170 164 163 164 162 160 159 160 151 150 153 150 143 145 145 149 140 144 137 133 128 131 134 136 114 76 56 92 127 142 130 112 105 110 100 122 116 109 98 88 94 89 86 87 82 77 73 63 67 46 61 69 68 69 64 57 52 73 78 52 90 70 32 18 49
134 139 165 227 37 328 269 94 100 99 290 277 25 154 195 192 192 186 176 176 198 189 179 183 180 180 179 178 178 179 174 148 154 154 164 163 159 164 159 161 151 152 161 150 149 155 153 150 151 160 132 141 144 152 160 137 135 161 149 160 153 153 128 122 128 127 125 121 118 113 111 102 93 95 95 89 87 85 65 53 54 57 63 75 81 74 68 61 57 53 71 58 21 96 48 357 328
147 141 163 103 299 243 264 80 62 86 56 295 344 56 226 207 193 185 183 191 198 190 179 184 179 183 181 180 180 168 153 163 162 160 166 167 166 165 163 163 162 159 158 156 154 149 152 154 161 157 155 151 160 154 141 137 129 122 119 168 153 126 308 146 134 141 118 98 98 117 119 115 108 91 88 95 94 91 93 74 55 46 37 58 71 58 67 58 61 69 78 114 82 33 72 15 13
125 113 84 171 263 33 304 308 33 98 137 205 348 328 275 269 240 207 204 192 199 189 181 186 185 185 183 181 176 169 166 165 170 168 173 170 172 167 166 168 165 159 157 155 154 155 157 160 165 161 164 159 165 168 160 150 161 173 120 142 184 138 157 105 80 67 97 98 92 100 105 118 123 114 98 90 89 96 97 97 82 60 49 55 99 80 58 58 57 53 74 102 121 74 25 10 15
54 96 98 96 196 231 178 258 330 318 9 39 318 328 303 248 185 210 224 214 205 202 189 195 198 196 185 177 175 172 170 171 171 171 174 171 173 174 173 171 163 162 165 164 160 160 164 167 172 169 166 168 179 180 171 158 133 78 67 57 82 67 55 76 89 61 78 107 108 108 137 128 130 117 110 105 112 126 121 109 89 88 73 61 84 88 81 87 82 86 87 90 85 138 102 130 359
5 142 162 214 167 234 122 35 53 22 345 8 95 349 287 263 232 193 195 196 216 212 194 201 191 192 182 171 179 181 175 171 171 173 176 177 176 168 169 168 168 168 169 171 164 164 161 173 170 170 168 168 175 197 175 135 144 136 112 124 125 117 121 125 143 162 136 133 148 149 132 131 126 130 136 122 120 126 130 120 108 93 85 76 84 96 103 74 57 66 53 111 97 83 143 106 89
43 299 197 215 217 212 140 65 59 48 149 272 104 175 269 319 256 198 179 193 207 210 204 209 198 179 178 175 177 176 172 175 177 171 170 171 177 172 173 172 172 172 173 167 164 165 168 170 173 171 175 183 183 197 173 137 131 153 154 161 158 162 159 213 197 176 145 158 140 141 154 142 142 138 155 140 126 135 138 130 111 104 100 94 92 90 77 83 81 76 77 73 82 111 93 96 119
186 248 201 177 171 171 145 107 109 207 243 270 184 116 286 310 280 207 182 185 205 210 211 208 206 185 177 177 175 174 174 172 172 174 175 176 178 179 178 177 173 175 167 163 165 167 169 173 171 176 180 181 189 184 174 152 155 167 160 162 161 167 169 180 169 167 152 149 137 155 146 161 156 149 152 173 152 129 120 105 93 95 97 102 95 93 109 112 90 67 74 90 75 80 108 123 115
199 200 142 154 171 169 153 127 134 339 44 301 24 101 3 261 272 278 165 185 209 218 209 206 199 187 177 175 176 175 175 174 170 172 177 178 181 183 178 179 172 163 166 168 168 169 171 173 172 173 181 182 188 165 174 167 164 169 163 162 166 186 181 166 159 148 151 148 129 147 139 153 158 175 165 147 122 105 124 127 116 109 106 107 106 105 108 106 113 113 92 77 85 72 90 127 110
177 116 78 70 77 77 105 118 103 40 79 269 222 170 178 283 265 146 205 193 208 215 207 203 198 185 176 174 177 176 175 175 175 175 176 179 180 182 179 172 166 169 171 165 165 165 170 172 173 172 184 182 181 169 175 172 172 166 153 168 168 183 148 127 138 155 155 143 141 159 150 147 162 154 130 121 110 116 126 127 130 133 130 128 110 124 111 99 106 108 120 120 112 97 92 108 118
124 92 104 87 54 70 80 63 78 66 18 248 199 173 154 298 266 189 155 212 207 193 193 204 203 191 178 173 175 175 174 175 176 179 180 178 180 177 167 173 174 163 170 167 166 168 170 174 179 176 185 172 172 174 181 171 171 163 159 169 173 173 156 150 143 151 148 141 156 171 158 169 165 170 142 127 126 130 130 135 137 147 150 131 121 122 127 129 133 126 123 106 105 114 112 105 100
125 134 136 124 48 328 51 23 37 72 285 271 215 174 165 164 291 267 225 289 177 174 188 191 197 195 182 175 177 175 173 175 175 176 178 171 173 179 169 174 174 169 169 173 173 170 170 178 179 179 184 175 174 174 183 173 166 167 166 168 174 185 156 165 165 166 177 176 174 176 180 156 189 167 157 132 126 126 127 128 131 139 145 138 148 150 153 149 144 128 114 109 111 108 107 99 107
109 103 107 101 326 33 352 27 17 202 212 284 98 131 101 241 238 245 250 236 198 182 187 189 190 192 182 175 177 175 174 173 174 177 173 171 177 179 178 178 174 170 176 177 178 174 173 178 181 178 187 181 177 175 179 182 171 170 172 178 179 183 168 178 175 175 183 178 175 166 170 181 185 159 191 167 174 150 143 138 135 133 145 158 158 155 168 156 139 116 116 116 120 118 126 124 114
140 147 133 84 77 55 215 261 212 310 286 285 126 168 216 242 282 254 240 218 201 188 186 185 183 186 184 177 173 175 175 175 177 176 175 174 180 183 181 176 178 176 176 178 180 178 176 178 182 182 188 179 178 177 182 179 185 181 177 180 183 182 180 185 181 183 188 185 176 169 178 182 185 192 185 193 194 167 160 168 158 156 148 154 162 169 166 166 143 131 134 130 137 153 131 130 138
195 133 139 169 146 160 180 183 170 206 196 304 108 115 235 80 255 262 227 220 183 182 181 178 181 185 185 177 170 172 175 178 177 177 178 178 180 181 182 180 179 177 177 178 180 180 176 179 182 185 187 184 179 183 183 186 188 189 187 186 185 183 186 188 192 189 185 185 192 174 183 185 186 196 195 197 185 176 169 161 159 153 149 146 158 163 155 138 136 133 138 145 146 157 148 139 151
71 162 72 78 232 145 132 204 151 219 131 49 158 212 191 177 256 321 246 133 161 169 162 165 181 173 168 167 173 174 178 178 179 181 182 180 180 181 181 182 180 176 180 179 180 179 181 184 184 186 187 187 184 184 188 188 193 190 190 191 191 190 190 191 203 195 193 190 188 182 186 192 199 193 200 176 187 174 170 168 163 165 162 149 158 159 145 138 143 138 146 150 162 164 145 148 171
257 66 214 215 182 113 82 9 40 83 52 248 213 329 317 302 355 10 13 80 138 166 173 165 180 167 163 173 177 176 177 179 180 183 184 182 181 183 182 182 182 179 180 182 183 183 182 181 183 187 190 190 187 187 189 190 192 190 197 197 192 193 193 191 203 201 198 201 194 190 187 199 195 192 192 184 176 181 176 169 165 168 172 166 159 163 151 150 156 156 161 170 182 197 155 161 165
80 102 234 207 64 105 117 190 338 54 116 259 42 306 307 32 261 326 12 90 141 173 146 198 184 162 173 179 178 180 181 183 183 184 183 181 183 185 186 186 184 184 184 184 184 183 182 181 181 184 188 189 192 187 189 192 194 195 198 202 200 195 193 198 202 203 201 196 202 198 196 189 199 198 186 180 174 177 182 178 164 172 179 174 178 183 168 159 161 171 177 180 195 185 176 170 187
126 202 183 97 324 3 316 88 3 7 355 299 321 321 280 135 280 332 323 149 215 173 91 92 148 177 184 184 184 186 185 179 181 184 183 184 186 187 186 187 188 186 185 185 182 179 181 185 184 185 188 189 187 186 188 193 194 197 197 200 202 203 202 198 200 202 192 195 196 194 193 199 198 187 181 172 173 178 181 182 174 175 180 187 191 191 191 179 176 183 192 193 199 184 174 185 212
278 89 35 285 104 164 120 204 169 117 224 62 287 48 114 249 250 217 248 257 250 249 46 108 141 158 149 162 191 190 182 185 184 184 186 187 188 188 188 186 185 185 186 185 179 179 183 185 186 190 190 186 183 184 184 189 196 196 201 201 208 206 204 202 203 198 196 198 193 184 195 188 195 184 184 179 177 180 183 180 186 179 184 190 193 205 189 195 193 197 193 198 205 189 185 191 208
348 1 308 359 7 208 109 28 86 172 166 161 174 33 302 269 225 220 245 240 247 192 180 190 170 169 161 162 168 185 194 193 187 186 187 188 189 190 190 189 188 183 183 180 180 184 185 184 188 187 186 187 187 188 184 188 187 196 198 201 205 206 211 206 205 205 200 201 193 184 184 191 177 187 180 181 184 184 186 187 181 185 184 190 198 207 199 191 193 208 210 201 196 194 197 214 201
188 175 210 171 105 39 74 274 353 65 91 202 96 252 266 270 251 236 231 246 221 182 186 185 193 202 177 187 183 169 174 192 199 189 188 189 189 190 190 187 182 179 182 186 188 184 183 188 190 188 187 188 189 190 189 186 186 191 197 200 203 200 205 206 206 206 206 204 194 187 184 178 181 192 183 187 189 187 188 186 184 189 189 193 201 207 200 185 196 206 217 210 199 197 209 216 209